Squamish (Auto8), British Columbia

12:27 PM PST on January 18, 2017 (GMT -0800)
Squamish

Weather History for CWSK - April, 2013

Change the Weather History Date:

Thursday, April 11, 2013

  Actual Average Record
Temperature  
Mean Temperature 48 °F -  
Max Temperature 56 °F - - ()
Min Temperature 40 °F - - ()
Degree Days  
Heating Degree Days 17    
Moisture  
Dew Point 38 °F    
Average Humidity 71    
Maximum Humidity 98    
Minimum Humidity 32    
Precipitation  
Precipitation 0.04 in - - ()
Sea Level Pressure  
Sea Level Pressure 30.17 in    
Wind  
Wind Speed 3 mph ()    
Max Wind Speed 10 mph    
Max Gust Speed 20 mph    
T = Trace of Precipitation, MM = Missing Value Source: Averaged Metar Reports

Daily Weather History Graph

Daily Weather History Graph

Search for Another Location

Airport or City:

Trip Planner

Search our weather history database for the weather conditions in past years. The results will help you decide how hot, cold, wet, or windy it might be!

Date:

Astronomy

Apr. 11, 2013 Rise Set
Actual Time 6:27 AM PDT 8:00 PM PDT
Civil Twilight 5:54 AM PDT 8:34 PM PDT
Nautical Twilight 5:13 AM PDT 9:15 PM PDT
Astronomical Twilight 4:28 AM PDT 10:00 PM PDT
Moon 6:54 AM PDT (4/11) 9:51 PM PDT (4/11)
Length of Visible Light 14h 40m
Length of Day
13h 32m
New Moon, 2% of the Moon is Illuminated
Apr 11
New Moon
Apr 18
First Quarter
Apr 25
Full
May 2
Last Quarter
May 9
New

Hourly Weather History & Observations

Time (PDT) Temp. Dew Point Humidity Pressure Visibility Wind Dir Wind Speed Gust Speed Precip Events Conditions
12:00 AM 47.3 °F 41.9 °F 82% 30.12 in - WSW 3.5 mph - N/A   Unknown
1:00 AM 46.2 °F 41.9 °F 85% 30.12 in - West 2.3 mph - N/A   Unknown
2:00 AM 45 °F 42 °F 86% 30.13 in - North 2.3 mph - -  
2:00 AM 44.8 °F 42.3 °F 91% 30.13 in - North 2.3 mph - N/A   Unknown
3:00 AM 44.4 °F 43.0 °F 95% 30.13 in - NNE 1.2 mph - N/A   Unknown
4:00 AM 44.6 °F 43.5 °F 96% 30.14 in - Calm Calm - 0.02 in   Unknown
5:00 AM 44 °F 44 °F 97% 30.16 in - Calm Calm - -  
5:00 AM 44.4 °F 43.5 °F 97% 30.16 in - Calm Calm - 0.04 in   Unknown
6:00 AM 43.3 °F 42.8 °F 98% 30.16 in - North 1.2 mph - N/A   Unknown
7:00 AM 42.8 °F 42.3 °F 98% 30.18 in - North 2.3 mph - N/A   Unknown
8:00 AM 44 °F 43 °F 95% 30.19 in - Calm Calm - -  
8:00 AM 43.7 °F 43.0 °F 97% 30.19 in - Calm Calm - N/A   Unknown
9:00 AM 45.5 °F 44.1 °F 95% 30.20 in - NNW 1.2 mph - N/A   Unknown
10:00 AM 49.3 °F 39.7 °F 70% 30.21 in - WNW 2.3 mph - N/A   Unknown
11:00 AM 50 °F 40 °F 60% 30.21 in - West 4.6 mph - -  
11:00 AM 50.0 °F 40.5 °F 70% 30.21 in - West 4.6 mph - N/A   Unknown
12:00 PM 53.8 °F 38.8 °F 57% 30.20 in - West 3.5 mph - N/A   Unknown
1:00 PM 54.3 °F 33.8 °F 46% 30.19 in - SE 8.1 mph - N/A   Unknown
2:00 PM 55 °F 34 °F 32% 30.18 in - SE 8.1 mph - -  
2:00 PM 54.9 °F 33.8 °F 45% 30.18 in - SSE 8.1 mph - N/A   Unknown
3:00 PM 54.9 °F 33.4 °F 44% 30.18 in - SE 8.1 mph - N/A   Unknown
4:00 PM 54.3 °F 34.0 °F 46% 30.18 in - SE 10.4 mph 19.6 mph N/A   Unknown
5:00 PM 53 °F 32 °F 33% 30.16 in - SSE 9.2 mph - -  
5:00 PM 52.7 °F 31.6 °F 45% 30.16 in - SSE 9.2 mph - N/A   Unknown
6:00 PM 52.0 °F 31.5 °F 46% 30.16 in - SE 6.9 mph - N/A   Unknown
7:00 PM 49.8 °F 33.4 °F 53% 30.16 in - ESE 5.8 mph - N/A   Unknown
8:00 PM 48 °F 34 °F 47% 30.16 in - SE 6.9 mph - -  
8:00 PM 48.0 °F 34.0 °F 58% 30.16 in - SE 6.9 mph - N/A   Unknown
9:00 PM 47.3 °F 34.2 °F 60% 30.17 in - SE 4.6 mph - N/A   Unknown
10:00 PM 43.5 °F 36.1 °F 75% 30.18 in - ESE 1.2 mph - N/A   Unknown
11:00 PM 40 °F 38 °F 88% 30.17 in - East 1.2 mph - -  
11:00 PM 40.3 °F 37.6 °F 90% 30.17 in - East 1.2 mph - N/A   Unknown